Fulton, NY

2:51 AM EST on December 11, 2019 (GMT -0500)
Oswego County

Weather History for KFZY - May, 2019

Change the Weather History Date:

Wednesday, May 15, 2019

  Actual Average (KSYR) Record (KSYR)
Temperature  
Mean Temperature 52 °F -  
Max Temperature 64 °F 69 °F 87 °F (1940)
Min Temperature 41 °F 45 °F 33 °F (1977)
Degree Days  
Heating Degree Days 14    
Growing Degree Days 2 (Base 50)    
Moisture  
Dew Point 40 °F    
Average Humidity 72    
Maximum Humidity 93    
Minimum Humidity 39    
Precipitation  
Precipitation 0.00 in - - ()
Sea Level Pressure  
Sea Level Pressure 29.86 in    
Wind  
Wind Speed 2 mph (WNW)    
Max Wind Speed 13 mph    
Max Gust Speed -    
Visibility 10 miles    
Events Rain    
Averages and records for this station are not official NWS values.
T = Trace of Precipitation, MM = Missing Value Source: NWS Daily Summary

Daily Weather History Graph

Daily Weather History Graph

Search for Another Location

Airport or City:

Astronomy

May. 15, 2019 Rise Set
Actual Time 5:41 AM EDT 8:22 PM EDT
Civil Twilight 5:08 AM EDT 8:55 PM EDT
Nautical Twilight 4:27 AM EDT 9:37 PM EDT
Astronomical Twilight 3:40 AM EDT 10:24 PM EDT
Moon 4:42 PM EDT (5/15) 4:15 AM EDT (5/15)
Length of Visible Light 15h 47m
Length of Day
14h 41m
Waxing Gibbous, 87% of the Moon is Illuminated
May 15
Waxing Gibbous
May 18
Full
May 26
Last Quarter
Jun 3
New
Jun 10
First Quarter

Hourly Weather History & Observations

Time (EDT) Temp. Windchill Dew Point Humidity Pressure Visibility Wind Dir Wind Speed Gust Speed Precip Events Conditions
12:54 AM 42.1 °F - 37.9 °F 85% 29.92 in 10.0 mi Calm Calm - N/A   Overcast
1:54 AM 42.1 °F - 37.9 °F 85% 29.91 in 10.0 mi Calm Calm - N/A   Overcast
2:54 AM 41.0 °F - 37.9 °F 89% 29.90 in 10.0 mi Calm Calm - N/A   Overcast
3:54 AM 42.1 °F - 37.9 °F 85% 29.89 in 10.0 mi Calm Calm - N/A   Overcast
4:13 AM 41.0 °F - 37.0 °F 86% 29.88 in 10.0 mi Calm Calm - N/A   Overcast
4:19 AM 41.0 °F - 37.9 °F 89% 29.87 in 10.0 mi Calm Calm - N/A   Overcast
4:54 AM 43.0 °F - 39.0 °F 86% 29.88 in 10.0 mi Calm Calm - N/A   Overcast
5:54 AM 42.1 °F - 39.0 °F 89% 29.88 in 10.0 mi Calm Calm - N/A   Overcast
6:19 AM 41.0 °F - 37.9 °F 89% 29.88 in 10.0 mi Calm Calm - N/A   Overcast
6:43 AM 41.0 °F - 37.0 °F 86% 29.88 in 10.0 mi Calm Calm - N/A   Scattered Clouds
6:54 AM 43.0 °F - 39.9 °F 89% 29.89 in 10.0 mi Calm Calm - N/A   Mostly Cloudy
7:52 AM 44.6 °F - 42.8 °F 93% 29.89 in 10.0 mi Calm Calm - N/A   Mostly Cloudy
7:54 AM 46.0 °F 44.8 °F 42.1 °F 86% 29.89 in 10.0 mi Variable 3.5 mph - N/A   Mostly Cloudy
8:54 AM 50.0 °F - 43.0 °F 77% 29.89 in 10.0 mi SSW 6.9 mph - N/A   Scattered Clouds
9:54 AM 54.0 °F - 43.0 °F 66% 29.88 in 10.0 mi Variable 4.6 mph - N/A   Scattered Clouds
10:54 AM 55.9 °F - 43.0 °F 62% 29.87 in 10.0 mi Calm Calm - 0.00 in Rain Light Rain
11:54 AM 59.0 °F - 42.1 °F 53% 29.86 in 10.0 mi NW 6.9 mph - 0.00 in   Mostly Cloudy
12:54 PM 57.0 °F - 37.9 °F 49% 29.86 in 10.0 mi WNW 9.2 mph - 0.00 in   Overcast
2:54 PM 62.1 °F - 37.0 °F 39% 29.81 in 10.0 mi WNW 10.4 mph - N/A   Overcast
3:54 PM 60.1 °F - 37.9 °F 44% 29.81 in 10.0 mi NNW 8.1 mph - N/A   Mostly Cloudy
4:54 PM 60.1 °F - 39.9 °F 47% 29.81 in 10.0 mi WNW 8.1 mph - N/A   Mostly Cloudy
5:54 PM 59.0 °F - 39.9 °F 49% 29.81 in 10.0 mi WNW 9.2 mph - 0.00 in   Mostly Cloudy
6:54 PM 59.0 °F - 39.9 °F 49% 29.80 in 10.0 mi West 10.4 mph - N/A   Scattered Clouds
7:54 PM 57.0 °F - 41.0 °F 55% 29.82 in 10.0 mi West 8.1 mph - N/A   Clear
8:54 PM 54.0 °F - 41.0 °F 62% 29.81 in 10.0 mi SSW 4.6 mph - N/A   Clear
9:45 PM 53.1 °F - 42.1 °F 66% 29.85 in 10.0 mi NNW 12.7 mph - 0.00 in Rain Light Rain
9:54 PM 52.0 °F - 44.1 °F 74% 29.86 in 10.0 mi NW 8.1 mph - 0.00 in Rain Light Rain
11:54 PM 48.9 °F - 44.1 °F 83% 29.85 in 10.0 mi West 4.6 mph - N/A   Overcast